TimeCDT,TemperatureF,Dew PointF,Humidity,Sea Level PressureIn,VisibilityMPH,Wind Direction,Wind SpeedMPH,Gust SpeedMPH,PrecipitationIn,Events,Conditions,WindDirDegrees,DateUTC
12:15 AM,77.4,75.4,94,29.90,10.0,SSE,3.5,-,N/A,,Scattered Clouds,150,2013-06-04 05:15:00
12:35 AM,76.8,74.8,94,29.89,10.0,SSE,4.6,-,N/A,,Clear,150,2013-06-04 05:35:00
12:55 AM,76.3,74.5,94,29.89,10.0,SE,3.5,-,N/A,,Clear,140,2013-06-04 05:55:00
1:15 AM,76.1,74.3,94,29.89,10.0,Calm,Calm,-,N/A,,Clear,0,2013-06-04 06:15:00
1:35 AM,75.7,73.9,94,29.88,10.0,Calm,Calm,-,N/A,,Clear,0,2013-06-04 06:35:00
1:55 AM,74.8,73.4,95,29.88,10.0,Calm,Calm,-,N/A,,Clear,0,2013-06-04 06:55:00
2:15 AM,74.3,72.9,95,29.88,10.0,Calm,Calm,-,N/A,,Clear,0,2013-06-04 07:15:00
2:35 AM,72.7,71.6,96,29.88,1.2,Calm,Calm,-,N/A,,Mist,0,2013-06-04 07:35:00
2:55 AM,72.1,71.2,97,29.88,7.0,Calm,Calm,-,N/A,,Clear,0,2013-06-04 07:55:00
3:15 AM,71.6,70.7,97,29.88,10.0,Calm,Calm,-,N/A,,Clear,0,2013-06-04 08:15:00
3:35 AM,71.6,70.7,97,29.88,10.0,Calm,Calm,-,N/A,,Clear,0,2013-06-04 08:35:00
3:55 AM,70.7,70.0,98,29.88,7.0,Calm,Calm,-,N/A,,Clear,0,2013-06-04 08:55:00
4:15 AM,70.9,70.3,98,29.89,4.0,Calm,Calm,-,N/A,,Clear,0,2013-06-04 09:15:00
4:35 AM,70.2,69.8,99,29.89,7.0,Calm,Calm,-,N/A,,Clear,0,2013-06-04 09:35:00
4:55 AM,70.0,69.6,99,29.89,7.0,NNW,3.5,-,N/A,,Clear,330,2013-06-04 09:55:00
5:15 AM,70.5,70.2,99,29.89,5.0,Calm,Calm,-,N/A,,Clear,0,2013-06-04 10:15:00
5:35 AM,69.3,69.1,99,29.90,10.0,Calm,Calm,-,N/A,,Clear,0,2013-06-04 10:35:00
5:55 AM,69.6,69.4,99,29.90,4.0,NNW,3.5,-,N/A,,Clear,330,2013-06-04 10:55:00
6:15 AM,69.3,69.3,100,29.90,10.0,Calm,Calm,-,N/A,,Clear,0,2013-06-04 11:15:00
6:35 AM,69.6,69.3,99,29.91,10.0,North,3.5,-,N/A,,Clear,350,2013-06-04 11:35:00
6:55 AM,71.2,71.2,100,29.91,7.0,Calm,Calm,-,N/A,,Clear,0,2013-06-04 11:55:00
7:15 AM,73.4,73.4,100,29.91,10.0,Calm,Calm,-,N/A,,Clear,0,2013-06-04 12:15:00
7:35 AM,76.8,75.2,95,29.91,10.0,Calm,Calm,-,N/A,,Clear,0,2013-06-04 12:35:00
7:55 AM,82.0,76.1,82,29.91,10.0,Calm,Calm,-,N/A,,Clear,0,2013-06-04 12:55:00
8:15 AM,83.5,76.8,80,29.91,10.0,Calm,Calm,-,N/A,,Clear,0,2013-06-04 13:15:00
8:35 AM,84.6,76.1,76,29.92,10.0,NE,4.6,-,N/A,,Scattered Clouds,40,2013-06-04 13:35:00
8:55 AM,85.1,75.6,73,29.91,10.0,NNE,4.6,-,N/A,,Scattered Clouds,30,2013-06-04 13:55:00
9:15 AM,86.0,76.5,73,29.91,10.0,NE,6.9,-,N/A,,Scattered Clouds,40,2013-06-04 14:15:00
9:35 AM,86.0,76.5,73,29.92,10.0,NE,5.8,-,N/A,,Scattered Clouds,40,2013-06-04 14:35:00
9:55 AM,85.8,75.7,72,29.93,10.0,NNE,4.6,-,N/A,,Mostly Cloudy,20,2013-06-04 14:55:00
10:15 AM,85.3,75.9,73,29.93,10.0,North,6.9,-,N/A,,Mostly Cloudy,10,2013-06-04 15:15:00
10:35 AM,86.9,76.1,70,29.93,10.0,NNE,8.1,-,N/A,,Scattered Clouds,20,2013-06-04 15:35:00
10:55 AM,87.8,74.3,64,29.93,10.0,ENE,8.1,-,N/A,,Scattered Clouds,70,2013-06-04 15:55:00
11:15 AM,88.5,74.5,63,29.93,10.0,NE,9.2,-,N/A,,Scattered Clouds,50,2013-06-04 16:15:00
11:35 AM,89.1,74.3,62,29.93,10.0,NNE,6.9,-,N/A,,Scattered Clouds,20,2013-06-04 16:35:00
11:55 AM,89.8,74.5,61,29.92,10.0,ENE,5.8,-,N/A,,Scattered Clouds,60,2013-06-04 16:55:00
12:15 PM,90.0,73.9,59,29.92,10.0,Calm,Calm,-,N/A,,Clear,0,2013-06-04 17:15:00
12:35 PM,90.1,74.7,60,29.92,10.0,NE,8.1,-,N/A,,Clear,40,2013-06-04 17:35:00
12:55 PM,90.1,74.3,59,29.92,10.0,North,8.1,-,N/A,,Scattered Clouds,360,2013-06-04 17:55:00
1:15 PM,88.0,74.1,63,29.92,10.0,NNE,8.1,-,N/A,,Overcast,30,2013-06-04 18:15:00
1:35 PM,90.3,74.8,60,29.92,10.0,NE,8.1,-,N/A,,Mostly Cloudy,40,2013-06-04 18:35:00
1:55 PM,90.7,75.6,61,29.91,10.0,NE,12.7,18.4,N/A,,Clear,40,2013-06-04 18:55:00
2:15 PM,90.0,75.9,63,29.91,10.0,ENE,11.5,17.3,N/A,,Clear,70,2013-06-04 19:15:00
2:35 PM,90.3,76.5,64,29.90,10.0,NE,9.2,-,N/A,,Clear,50,2013-06-04 19:35:00
2:55 PM,88.5,75.7,66,29.89,10.0,ENE,9.2,-,N/A,,Scattered Clouds,70,2013-06-04 19:55:00
3:15 PM,90.7,75.6,61,29.89,10.0,ENE,10.4,-,N/A,,Scattered Clouds,70,2013-06-04 20:15:00
3:35 PM,89.8,75.0,62,29.89,10.0,NE,9.2,16.1,N/A,,Scattered Clouds,50,2013-06-04 20:35:00
3:55 PM,89.8,74.7,61,29.89,10.0,ENE,9.2,-,N/A,,Scattered Clouds,60,2013-06-04 20:55:00
4:15 PM,90.3,75.0,61,29.88,10.0,East,11.5,-,N/A,,Scattered Clouds,80,2013-06-04 21:15:00
4:35 PM,90.1,75.0,61,29.87,10.0,East,10.4,16.1,N/A,,Scattered Clouds,80,2013-06-04 21:35:00
4:55 PM,88.5,76.5,67,29.87,10.0,East,13.8,18.4,N/A,,Scattered Clouds,90,2013-06-04 21:55:00
5:15 PM,88.2,76.1,67,29.87,10.0,East,11.5,-,N/A,,Scattered Clouds,90,2013-06-04 22:15:00
5:35 PM,88.0,75.6,66,29.86,10.0,East,9.2,-,N/A,,Scattered Clouds,100,2013-06-04 22:35:00
5:55 PM,87.6,75.7,68,29.86,10.0,East,10.4,16.1,N/A,,Scattered Clouds,90,2013-06-04 22:55:00
6:15 PM,86.9,75.7,69,29.86,10.0,East,11.5,-,N/A,,Scattered Clouds,100,2013-06-04 23:15:00
6:35 PM,86.9,75.4,68,29.86,10.0,East,10.4,-,N/A,,Scattered Clouds,100,2013-06-04 23:35:00
6:55 PM,86.4,75.6,70,29.87,10.0,East,8.1,-,N/A,,Scattered Clouds,90,2013-06-04 23:55:00
7:15 PM,86.0,75.2,70,29.87,10.0,East,8.1,-,N/A,,Scattered Clouds,80,2013-06-05 00:15:00
7:35 PM,85.3,75.4,72,29.87,10.0,East,8.1,-,N/A,,Scattered Clouds,90,2013-06-05 00:35:00
7:55 PM,84.4,75.0,73,29.88,10.0,ENE,8.1,-,N/A,,Scattered Clouds,70,2013-06-05 00:55:00
8:15 PM,83.8,75.6,76,29.88,10.0,ENE,9.2,-,N/A,,Scattered Clouds,70,2013-06-05 01:15:00
8:35 PM,83.5,75.4,76,29.88,10.0,ENE,11.5,-,N/A,,Clear,70,2013-06-05 01:35:00
8:55 PM,83.3,75.2,76,29.89,10.0,East,6.9,-,N/A,,Clear,80,2013-06-05 01:55:00
9:15 PM,83.3,75.9,78,29.90,10.0,East,8.1,-,N/A,,Mostly Cloudy,100,2013-06-05 02:15:00
9:35 PM,82.9,75.9,79,29.90,10.0,East,8.1,-,N/A,,Mostly Cloudy,100,2013-06-05 02:35:00
9:55 PM,82.6,75.7,80,29.91,10.0,East,6.9,-,N/A,,Mostly Cloudy,90,2013-06-05 02:55:00
10:15 PM,82.4,76.1,81,29.91,10.0,East,9.2,-,N/A,,Mostly Cloudy,90,2013-06-05 03:15:00
10:35 PM,82.4,76.1,81,29.91,10.0,East,5.8,-,N/A,,Mostly Cloudy,100,2013-06-05 03:35:00
10:55 PM,82.4,75.9,81,29.91,10.0,East,8.1,16.1,N/A,,Mostly Cloudy,100,2013-06-05 03:55:00
11:15 PM,82.0,75.2,80,29.91,10.0,East,9.2,-,N/A,,Scattered Clouds,100,2013-06-05 04:15:00
11:35 PM,81.9,75.2,80,29.91,10.0,East,8.1,-,N/A,,Scattered Clouds,90,2013-06-05 04:35:00
11:55 PM,81.9,75.2,80,29.91,10.0,East,6.9,-,N/A,,Scattered Clouds,100,2013-06-05 04:55:00